Location: The C. Gantt Observatory
(33.6981°N, 81.6836°W)
Time: 16:13:07
(UTC-05:00)

Daily predictions for brighter satellites

Satellite Brightness Start Highest point End
(mag) Time Altitude Azimuth Time Altitude Azimuth Time Altitude Azimuth
AQUARIUS 4.3 17:43:48 10° SSE 17:48:11 55° ENE 17:52:35 10° N
Cosmos 2366 rocket 4.1 17:44:00 10° N 17:50:22 86° E 17:56:38 10° S
Cosmos 1484 Rocket 4.0 17:49:37 10° ESE 17:52:23 20° ENE 17:55:08 10° NNE
PAYLOAD A 4.3 17:51:44 10° S 17:56:31 72° WSW 18:01:31 10° NNW
Cosmos 1238 Rocket 4.1 17:54:17 10° SW 17:56:56 31° W 17:59:43 10° NNW
Cosmos 2218 Rocket 4.5 17:54:29 10° NNW 18:00:41 67° W 18:06:46 10° S
USA 234 3.8 17:54:58 10° NE 18:01:19 56° NW 18:07:39 10° WSW
Cosmos 1975 2.8 17:57:39 10° N 18:01:44 83° E 18:05:44 10° S
CZ-4 R/B 1.9 18:00:30 10° S 18:04:39 67° W 18:08:46 10° NNW
Meteor 1-13 Rocket 4.3 18:00:47 10° S 18:06:22 66° E 18:12:07 10° NNE
MSX 3.9 18:01:59 10° SSE 18:07:37 60° ENE 18:13:16 10° N
MOS 1 4.4 18:02:07 10° SSE 18:07:46 86° WSW 18:13:27 10° NNW
Cosmos 2369 Rocket 3.9 18:06:13 10° ESE 18:08:07 12° E 18:08:55 11° E
KM-V1 3.8 18:06:46 10° WSW 18:09:20 44° S 18:10:47 15° ESE
CORIOLIS 4.1 18:06:23 10° SSE 18:11:48 87° ENE 18:17:12 10° NNW
Meteor 2-4 Rocket 4.1 18:07:18 10° SSE 18:12:15 38° E 18:17:10 10° NNE
CZ-2C R/B 2.7 18:07:48 10° S 18:12:47 76° WSW 18:17:55 10° NNW
Abrixas 3.8 18:11:44 10° NNW 18:14:10 22° NNE 18:15:00 20° NE
COSMO-SKYMED 1 2.7 18:11:48 10° NNE 18:16:04 54° E 18:20:17 10° S
COSMOS 2441 4.4 18:11:21 10° SSE 18:16:07 59° ENE 18:20:56 10° N
CZ-3B DEB 3.9 18:14:40 10° WNW 18:18:09 22° NNW 18:24:45 10° NE
Cosmos 2056 Rocket 3.8 18:13:43 10° S 18:18:50 46° ESE 18:23:51 10° NNE
Meteor 2-14 Rocket 4.5 18:13:22 10° N 18:19:24 57° E 18:25:24 10° SSE
Cosmos 921 Rocket 3.4 18:18:50 10° SSW 18:23:01 65° WNW 18:27:20 10° N
Cosmos 1025 Rocket 3.2 18:19:03 10° SSE 18:23:15 49° E 18:27:30 10° NNE
Cosmos 1821 Rocket 4.2 18:18:03 10° N 18:23:51 45° E 18:29:41 10° SSE
Timation 2 Rocket 4.1 18:18:56 10° NNW 18:25:48 74° ENE 18:32:40 10° SSE
ATLAS 2AS CENTAUR R/B 4.4 18:23:25 10° NW 18:30:40 41° WSW 18:37:23 10° S
Cosmos 1624 Rocket 3.9 18:26:42 10° S 18:31:50 69° ESE 18:36:48 11° NNE
Cosmos 1340 3.8 18:32:19 10° SSE 18:34:57 25° ESE 18:34:57 25° ESE
YAOGAN 1 4.0 18:32:02 10° S 18:36:06 41° W 18:40:13 10° NNW
Cosmos 1371 Rocket 4.1 18:32:09 10° SSW 18:37:30 83° WNW 18:42:54 10° NNE
Meteor 2-16 Rocket 4.3 18:38:24 10° N 18:44:30 85° E 18:50:36 10° S
COSMOS 2487 4.5 18:42:11 10° NW 18:45:23 31° W 18:48:34 10° SSW
METEOR-M 4.5 18:41:55 10° SE 18:46:50 39° ENE 18:51:46 10° N
Orbus 7S? 3.7 18:52:04 10° SSW 18:54:06 31° SSE 18:54:06 31° SSE
Cosmos 1666 2.5 18:52:19 10° N 18:56:12 74° E 19:00:03 10° S
GEOS 3 Rocket 4.5 19:00:06 30° NNE 19:00:06 30° NNE 19:03:42 10° NNW
Delta 2 Rocket 3.2 19:01:55 10° WNW 19:05:39 67° N 19:05:39 67° N
Cosmos 1727 Rocket 3.9 19:01:36 10° S 19:07:41 58° E 19:10:52 28° NNE
Cosmos 1452 Rocket 3.5 19:02:45 10° S 19:07:49 54° ESE 19:08:13 52° E
Cosmos 1833 Rocket 3.2 19:04:24 10° NNW 19:09:57 60° WSW 19:15:27 10° S
Cosmos 1190 Rocket 3.8 19:08:14 10° N 19:13:27 67° ENE 19:15:37 35° SE
Cosmos 1892 Rocket 3.7 19:11:20 10° SSW 19:15:39 70° W 19:17:15 37° N
Tiangong 1 4.0 19:13:59 10° NW 19:14:01 10° NW 19:14:01 10° NW
Cosmos 2082 Rocket 3.4 19:11:48 10° NW 19:17:07 43° WSW 19:22:27 10° S
FALCON 9 R/B 3.1 18:59:41 10° W 19:22:15 85° N 19:24:36 49° E
Cosmos 1726 Rocket 3.8 19:22:41 10° NNW 19:27:07 67° W 19:31:31 10° S
Cosmos 1339 Rocket 4.4 19:38:36 10° S 19:44:39 77° W 19:45:55 57° NNW
Cosmos 2369 Rocket 2.4 19:45:45 10° SSW 19:50:47 66° WSW 19:50:47 66° WSW
NOSS 3-4 (A) 4.4 19:59:56 10° NW 20:06:56 56° WSW 20:11:08 26° S
NOSS 3-4 (C) 4.3 20:00:03 10° NW 20:07:02 57° WSW 20:10:59 28° S
BREEZE M DEB (TANK) 4.5 20:12:20 10° NW 20:41:47 11° SE 20:43:17 10° SE
ATLAS 3B CENTAUR R/B 3.6 20:09:08 10° W 20:23:12 49° SSW 20:23:21 48° SSW
